Previsão horária em Abashevo

Hoje, 11 Abril, Domingo

Tempo Temperatura Precipitação Vento Pressão Humidade
00:00 +2°C° 0 mm 2 m/s 753 mmHg 95%
01:00 +2°C° 0 mm 2 m/s 753 mmHg 95%
02:00 0°C° 0 mm 3 m/s 753 mmHg 95%
03:00 0°C° 0 mm 3 m/s 753 mmHg 94%
04:00 0°C° 0 mm 3 m/s 753 mmHg 93%
05:00 0°C° 0 mm 3 m/s 754 mmHg 92%
06:00 0°C° 0 mm 3 m/s 754 mmHg 92%
07:00 +1°C° 0 mm 3 m/s 754 mmHg 83%
08:00 +3°C° 0 mm 4 m/s 755 mmHg 75%
09:00 +4°C° 0 mm 4 m/s 755 mmHg 67%
10:00 +5°C° 0 mm 4 m/s 755 mmHg 62%
11:00 +7°C° 0 mm 4 m/s 755 mmHg 57%
12:00 +8°C° 0 mm 5 m/s 755 mmHg 52%
13:00 +8°C° 0 mm 5 m/s 755 mmHg 50%
14:00 +9°C° 0 mm 5 m/s 755 mmHg 48%
15:00 +10°C° 0 mm 5 m/s 755 mmHg 46%
16:00 +9°C° 0 mm 5 m/s 756 mmHg 50%
17:00 +8°C° 0 mm 5 m/s 756 mmHg 55%
18:00 +7°C° 0 mm 5 m/s 756 mmHg 59%
19:00 +6°C° 0.1 mm 5 m/s 756 mmHg 66%
20:00 +6°C° 0.1 mm 4 m/s 756 mmHg 72%
21:00 +5°C° 0.1 mm 4 m/s 756 mmHg 79%
22:00 +5°C° 0.3 mm 4 m/s 756 mmHg 82%
23:00 +3°C° 0.3 mm 5 m/s 756 mmHg 86%

Amanhã, 12 Abril, Segunda-feira

Tempo Temperatura Precipitação Vento Pressão Humidade
00:00 +3°C° 0.3 mm 5 m/s 756 mmHg 89%
01:00 +3°C° 0 mm 5 m/s 756 mmHg 90%
02:00 +3°C° 0 mm 5 m/s 756 mmHg 92%
03:00 +3°C° 0 mm 5 m/s 757 mmHg 93%
04:00 +3°C° 0 mm 5 m/s 757 mmHg 94%
05:00 +3°C° 0 mm 5 m/s 756 mmHg 94%
06:00 +3°C° 0 mm 6 m/s 756 mmHg 95%
07:00 +4°C° 0 mm 6 m/s 756 mmHg 92%
08:00 +5°C° 0 mm 6 m/s 756 mmHg 89%
09:00 +7°C° 0 mm 6 m/s 757 mmHg 86%
10:00 +9°C° 0 mm 6 m/s 756 mmHg 80%
11:00 +10°C° 0 mm 6 m/s 756 mmHg 74%
12:00 +13°C° 0 mm 6 m/s 756 mmHg 68%
13:00 +14°C° 0 mm 5 m/s 756 mmHg 64%
14:00 +16°C° 0 mm 5 m/s 756 mmHg 61%
15:00 +17°C° 0 mm 5 m/s 756 mmHg 58%
16:00 +16°C° 0 mm 5 m/s 756 mmHg 61%
17:00 +17°C° 0 mm 4 m/s 755 mmHg 65%
18:00 +15°C° 0 mm 4 m/s 755 mmHg 69%
19:00 +14°C° 0 mm 4 m/s 755 mmHg 73%
20:00 +13°C° 0 mm 4 m/s 756 mmHg 77%
21:00 +11°C° 0 mm 3 m/s 756 mmHg 81%
22:00 +11°C° 0 mm 3 m/s 756 mmHg 82%
23:00 +10°C° 0 mm 3 m/s 756 mmHg 82%

Depois de amanhã, 13 Abril, Terça-feira

Tempo Temperatura Precipitação Vento Pressão Humidade
00:00 +10°C° 0 mm 3 m/s 756 mmHg 82%
01:00 +9°C° 0 mm 3 m/s 756 mmHg 83%
02:00 +9°C° 0 mm 3 m/s 756 mmHg 83%
03:00 +9°C° 0 mm 3 m/s 756 mmHg 84%
04:00 +8°C° 0 mm 3 m/s 756 mmHg 82%
05:00 +8°C° 0 mm 3 m/s 756 mmHg 80%
06:00 +8°C° 0 mm 3 m/s 756 mmHg 78%
07:00 +8°C° 0 mm 4 m/s 756 mmHg 70%
08:00 +11°C° 0 mm 4 m/s 756 mmHg 62%
09:00 +13°C° 0 mm 5 m/s 756 mmHg 54%
10:00 +14°C° 0 mm 5 m/s 755 mmHg 49%
11:00 +16°C° 0 mm 5 m/s 755 mmHg 44%
12:00 +17°C° 0 mm 5 m/s 755 mmHg 39%
13:00 +19°C° 0 mm 5 m/s 755 mmHg 37%
14:00 +19°C° 0 mm 5 m/s 754 mmHg 35%
15:00 +20°C° 0 mm 5 m/s 754 mmHg 34%
16:00 +19°C° 0 mm 5 m/s 754 mmHg 38%
17:00 +18°C° 0 mm 4 m/s 754 mmHg 43%
18:00 +17°C° 0 mm 3 m/s 754 mmHg 47%
19:00 +16°C° 0 mm 3 m/s 754 mmHg 52%
20:00 +13°C° 0 mm 4 m/s 754 mmHg 56%
21:00 +12°C° 0 mm 4 m/s 754 mmHg 61%
22:00 +11°C° 0 mm 3 m/s 754 mmHg 62%
23:00 +10°C° 0 mm 3 m/s 754 mmHg 64%

14 Abril, Quarta-feira

Tempo Temperatura Precipitação Vento Pressão Humidade
00:00 +10°C° 0 mm 3 m/s 754 mmHg 65%
01:00 +9°C° 0 mm 3 m/s 754 mmHg 66%
02:00 +9°C° 0 mm 3 m/s 753 mmHg 67%
03:00 +8°C° 0 mm 3 m/s 753 mmHg 68%
04:00 +8°C° 0 mm 3 m/s 753 mmHg 69%
05:00 +7°C° 0 mm 3 m/s 753 mmHg 71%
06:00 +7°C° 0 mm 3 m/s 753 mmHg 73%
07:00 +9°C° 0 mm 3 m/s 753 mmHg 67%
08:00 +11°C° 0 mm 4 m/s 753 mmHg 61%
09:00 +13°C° 0 mm 4 m/s 753 mmHg 55%
10:00 +14°C° 0 mm 4 m/s 753 mmHg 50%
11:00 +17°C° 0 mm 4 m/s 752 mmHg 45%
12:00 +18°C° 0 mm 4 m/s 752 mmHg 40%
13:00 +19°C° 0 mm 4 m/s 752 mmHg 38%
14:00 +19°C° 0 mm 4 m/s 751 mmHg 36%
15:00 +19°C° 0 mm 4 m/s 751 mmHg 33%
16:00 +18°C° 0 mm 4 m/s 751 mmHg 37%
17:00 +18°C° 0 mm 3 m/s 750 mmHg 41%
18:00 +17°C° 0 mm 2 m/s 750 mmHg 45%
19:00 +14°C° 0 mm 3 m/s 750 mmHg 49%
20:00 +13°C° 0 mm 3 m/s 750 mmHg 53%
21:00 +12°C° 0 mm 3 m/s 750 mmHg 56%
22:00 +11°C° 0 mm 3 m/s 750 mmHg 59%
23:00 +10°C° 0 mm 3 m/s 749 mmHg 61%

15 Abril, Quinta-feira

Tempo Temperatura Precipitação Vento Pressão Humidade
00:00 +10°C° 0 mm 3 m/s 749 mmHg 63%
01:00 +9°C° 0 mm 3 m/s 749 mmHg 65%
02:00 +9°C° 0 mm 3 m/s 749 mmHg 66%
03:00 +8°C° 0 mm 3 m/s 749 mmHg 67%
04:00 +8°C° 0 mm 3 m/s 748 mmHg 68%
05:00 +8°C° 0 mm 3 m/s 748 mmHg 69%
06:00 +8°C° 0 mm 3 m/s 748 mmHg 70%
07:00 +9°C° 0 mm 3 m/s 748 mmHg 64%
08:00 +11°C° 0 mm 3 m/s 748 mmHg 59%
09:00 +13°C° 0 mm 3 m/s 748 mmHg 53%
10:00 +14°C° 0 mm 3 m/s 747 mmHg 49%
11:00 +17°C° 0 mm 3 m/s 747 mmHg 44%
12:00 +18°C° 0 mm 3 m/s 747 mmHg 39%
13:00 +19°C° 0 mm 3 m/s 746 mmHg 37%
14:00 +19°C° 0 mm 3 m/s 746 mmHg 35%
15:00 +19°C° 0 mm 3 m/s 745 mmHg 33%
16:00 +19°C° 0 mm 2 m/s 745 mmHg 37%
17:00 +18°C° 0 mm 2 m/s 745 mmHg 41%
18:00 +18°C° 0 mm 1 m/s 744 mmHg 45%
19:00 +16°C° 0 mm 2 m/s 744 mmHg 49%
20:00 +15°C° 0 mm 2 m/s 744 mmHg 53%
21:00 +14°C° 0 mm 2 m/s 744 mmHg 56%
22:00 +13°C° 0 mm 2 m/s 744 mmHg 59%
23:00 +13°C° 0 mm 2 m/s 743 mmHg 62%

16 Abril, Sexta-feira

Tempo Temperatura Precipitação Vento Pressão Humidade
00:00 +12°C° 0 mm 2 m/s 743 mmHg 64%
01:00 +12°C° 0.1 mm 2 m/s 743 mmHg 68%
02:00 +12°C° 0.1 mm 2 m/s 743 mmHg 71%
03:00 +12°C° 0.1 mm 2 m/s 742 mmHg 74%
04:00 +10°C° 0.1 mm 3 m/s 742 mmHg 78%
05:00 +8°C° 0.1 mm 5 m/s 742 mmHg 81%
06:00 +7°C° 0.1 mm 6 m/s 743 mmHg 85%
07:00 +6°C° 0.3 mm 7 m/s 743 mmHg 85%
08:00 +5°C° 0.3 mm 7 m/s 743 mmHg 85%
09:00 +5°C° 0.3 mm 7 m/s 743 mmHg 85%
10:00 +4°C° 0.2 mm 7 m/s 744 mmHg 83%
11:00 +4°C° 0.2 mm 8 m/s 744 mmHg 80%
12:00 +4°C° 0.2 mm 8 m/s 744 mmHg 78%
13:00 +4°C° 0.1 mm 7 m/s 745 mmHg 71%
14:00 +4°C° 0.1 mm 7 m/s 745 mmHg 65%
15:00 +5°C° 0.1 mm 6 m/s 745 mmHg 58%
16:00 +5°C° 0 mm 7 m/s 745 mmHg 55%
17:00 +5°C° 0 mm 8 m/s 746 mmHg 52%
18:00 +5°C° 0 mm 8 m/s 746 mmHg 49%
19:00 +4°C° 0 mm 8 m/s 747 mmHg 51%
20:00 +1°C° 0 mm 8 m/s 748 mmHg 53%
21:00 0°C° 0 mm 7 m/s 748 mmHg 55%
22:00 0°C° 0 mm 7 m/s 748 mmHg 56%
23:00 -1°C° 0 mm 7 m/s 749 mmHg 58%
Mostrar mais